Flag for Germany Weather past 2 weeks in Rastatt, Baden-Württemberg, Germany

Now
54 °F

Sunny.


Feels Like: 53 °F
Forecast: 48 / 70 °F
Wind: 5 mph from Northeast

Location: Karlsruhe - Baden Wurttemberg

Current Time: May 27, 2015 at 9:54:04 AM

Latest Report: May 27, 2015 at 9:20 AM


Visibility: 10 mi

Pressure: 30.27 "Hg

Humidity: 54%

Dew point: 37 °F

Location of RastattLocation

Historic Weather in Rastatt — Graph

°F

Rastatt temperature yesterday

Maximum temperature yesterday: 61 °F (at 3:20 PM)
Minimum temperature yesterday: 52 °F (at 6:50 AM)
Average temperature yesterday: 56 °F

Past Weeks' High & Low Weather Summary

 TemperatureHumidityPressure
High84 °F (May 12, 2:20 PM)94% (May 14, 4:50 AM)30.33 "Hg (May 14, 4:50 AM)
Low39 °F (May 22, 4:50 AM)26% (May 22, 4:50 PM)29.71 "Hg (May 18, 7:50 PM)
Average60 °F61%30.06 "Hg
* Reported May 12 8:20 AM — May 27 8:20 AM, Rastatt, Weather by CustomWeather, © 2015

Note: Actual official high and low records may vary slightly from our data, if they occured in-between our weather recording intervals... More about our weather records

Advertising

Rastatt weather history for previous 24 hours

 ConditionsComfort  
Time TempWeatherWind HumidityBarometerVisibility
8:20 AM
Wed, May 27
52 °FSunny.2 mph67%30.27 "Hg10 mi
7:50 AM50 °FSunny.No wind76%30.24 "Hg10 mi
7:20 AM48 °FBroken clouds.1 mph82%30.24 "HgN/A
6:50 AM46 °FBroken clouds.2 mph87%30.24 "HgN/A
6:20 AM46 °FClear.1 mph87%30.24 "Hg10 mi
5:50 AM46 °FPassing clouds.No wind87%30.24 "HgN/A
5:20 AM46 °FPassing clouds.No wind82%30.24 "HgN/A
4:50 AM46 °FClear.2 mph82%30.24 "Hg10 mi
11:20 PM
Tue, May 26
54 °FClear.1 mph54%30.21 "Hg10 mi
10:50 PM54 °FClear.3 mph54%30.21 "Hg10 mi
10:20 PM54 °FClear.5 mph54%30.21 "Hg10 mi
9:50 PM55 °FSunny.5 mph51%30.18 "Hg10 mi
9:20 PM55 °FSunny.6 mph51%30.18 "Hg10 mi
8:50 PM55 °FSunny.3 mph59%30.18 "Hg10 mi
8:20 PM55 °FSunny.2 mph55%30.15 "Hg10 mi
7:50 PM57 °FPassing clouds.5 mph48%30.15 "HgN/A
7:20 PM57 °FSunny.6 mph51%30.15 "Hg10 mi
6:50 PM57 °FBroken clouds.8 mph51%30.12 "HgN/A
6:20 PM57 °FBroken clouds.7 mph55%30.12 "HgN/A
5:50 PM57 °FBroken clouds.6 mph55%30.12 "HgN/A
5:20 PM59 °FBroken clouds.7 mph51%30.12 "HgN/A
4:50 PM59 °FBroken clouds.3 mph48%30.09 "HgN/A
4:20 PM59 °FBroken clouds.7 mph51%30.09 "HgN/A
3:50 PM61 °FPartly sunny.5 mph48%30.09 "HgN/A
3:20 PM61 °FBroken clouds.5 mph48%30.09 "HgN/A
2:50 PM57 °FPartly sunny.5 mph59%30.09 "HgN/A
2:20 PM57 °FBroken clouds.6 mph59%30.09 "HgN/A
1:50 PM57 °FBroken clouds.7 mph59%30.09 "HgN/A
1:20 PM59 °FBroken clouds.8 mph55%30.09 "HgN/A
12:50 PM57 °FBroken clouds.8 mph63%30.09 "HgN/A
12:20 PM57 °FBroken clouds.7 mph63%30.09 "HgN/A
11:50 AM55 °FBroken clouds.9 mph67%30.09 "HgN/A
11:20 AM55 °FBroken clouds.8 mph67%30.09 "HgN/A
10:50 AM54 °FPartly sunny.8 mph72%30.07 "Hg6 mi
10:20 AM54 °FBroken clouds.7 mph77%30.07 "HgN/A
9:50 AM52 °FBroken clouds.7 mph77%30.07 "HgN/A
9:20 AM52 °FBroken clouds.8 mph82%30.07 "HgN/A
Weather by CustomWeather, © 2015

See weather overviewHow to use our weather pages